Weather History for Independence, KS

Change the Weather History Date:

Monday, July 21, 2014

  Actual Average (KCFV) Record (KCFV)
Temperature  
Mean Temperature 80 °F -  
Max Temperature 91 °F 89 °F 105 °F (2012)
Min Temperature 68 °F 68 °F 68 °F (2014)
Cooling Degree Days 14    
Growing Degree Days 30 (Base 50)    
Moisture  
Dew Point 69 °F    
Average Humidity 74    
Maximum Humidity 94    
Minimum Humidity 52    
Precipitation  
Precipitation 0.00 in - - ()
Sea Level Pressure  
Sea Level Pressure 30.01 in    
Wind  
Wind Speed 10 mph (South)    
Max Wind Speed 17 mph    
Max Gust Speed 20 mph    
Visibility 9 miles    
Events      
Averages and records for this station are not official NWS values.
T = Trace of Precipitation, MM = Missing Value Source: NWS Daily Summary

Daily Weather History Graph

Daily Weather History Graph

Search for Another Location

Airport:

Trip Planner

Search our weather history database for the weather conditions in past years. The results will help you decide how hot, cold, wet, or windy it might be!

Date:

Astronomy

Jul. 21, 2014 Rise Set
Actual Time 6:19 AM CDT 8:39 PM CDT
Civil Twilight 5:49 AM CDT 9:08 PM CDT
Nautical Twilight 5:13 AM CDT 9:45 PM CDT
Astronomical Twilight 4:33 AM CDT 10:25 PM CDT
Moon 2:08 AM CDT 4:24 PM CDT
Length of Visible Light 15h 19m
Length of Day
14h 20m
Waning Crescent, 24% of the Moon is Illuminated
Jul 21
Waning Crescent
Jul 26
New
Aug 3
First Quarter
Aug 10
Full
Aug 17
Last Quarter

Hourly Weather History & Observations

Time (CDT) Temp. Heat Index Dew Point Humidity Pressure Visibility Wind Dir Wind Speed Gust Speed Precip Events Conditions
12:15 AM 71.6 °F - 64.4 °F 78% 29.98 in 10.0 mi South 11.5 mph - N/A   Clear
12:35 AM 71.6 °F - 64.4 °F 78% 29.98 in 10.0 mi South 10.4 mph - N/A   Clear
12:55 AM 71.6 °F - 64.4 °F 78% 29.98 in 10.0 mi South 11.5 mph - N/A   Clear
1:15 AM 71.6 °F - 64.4 °F 78% 29.98 in 10.0 mi South 10.4 mph - N/A   Clear
1:35 AM 71.6 °F - 64.4 °F 78% 29.98 in 10.0 mi South 9.2 mph - N/A   Clear
1:55 AM 69.8 °F - 64.4 °F 83% 29.97 in 10.0 mi South 9.2 mph - N/A   Clear
2:15 AM 69.8 °F - 64.4 °F 83% 29.97 in 10.0 mi South 10.4 mph - N/A   Clear
2:35 AM 69.8 °F - 64.4 °F 83% 29.97 in 10.0 mi South 10.4 mph - N/A   Clear
2:55 AM 69.8 °F - 64.4 °F 83% 29.97 in 10.0 mi South 11.5 mph - N/A   Clear
3:15 AM 69.8 °F - 64.4 °F 83% 29.97 in 10.0 mi South 8.1 mph - N/A   Clear
3:35 AM 69.8 °F - 64.4 °F 83% 29.97 in 10.0 mi South 8.1 mph - N/A   Clear
3:55 AM 69.8 °F - 64.4 °F 83% 29.97 in 10.0 mi SSE 8.1 mph - N/A   Clear
4:15 AM 68.0 °F - 64.4 °F 88% 29.97 in 10.0 mi SSE 8.1 mph - N/A   Clear
4:35 AM 68.0 °F - 64.4 °F 88% 29.97 in 10.0 mi SSE 4.6 mph - N/A   Clear
4:55 AM 68.0 °F - 64.4 °F 88% 29.98 in 10.0 mi South 6.9 mph - N/A   Clear
5:15 AM 68.0 °F - 64.4 °F 88% 29.99 in 10.0 mi South 5.8 mph - N/A   Clear
5:35 AM 68.0 °F - 64.4 °F 88% 29.99 in 7.0 mi South 5.8 mph - N/A   Clear
5:55 AM 68.0 °F - 64.4 °F 88% 30.00 in 7.0 mi SSE 6.9 mph - N/A   Clear
6:15 AM 68.0 °F - 64.4 °F 88% 30.00 in 7.0 mi South 6.9 mph - N/A   Clear
6:35 AM 68.0 °F - 64.4 °F 88% 30.01 in 5.0 mi South 8.1 mph - N/A   Clear
6:55 AM 68.0 °F - 64.4 °F 88% 30.01 in 7.0 mi South 8.1 mph - N/A   Clear
7:15 AM 68.0 °F - 66.2 °F 94% 30.01 in 7.0 mi South 8.1 mph - N/A   Clear
7:35 AM 69.8 °F - 66.2 °F 88% 30.02 in 7.0 mi South 9.2 mph - N/A   Clear
7:55 AM 69.8 °F - 68.0 °F 94% 30.03 in 10.0 mi South 10.4 mph - N/A   Clear
8:35 AM 73.4 °F - 68.0 °F 83% 30.04 in 10.0 mi South 11.5 mph - N/A   Clear
8:55 AM 73.4 °F - 68.0 °F 83% 30.05 in 10.0 mi South 13.8 mph 18.4 mph N/A   Clear
9:15 AM 75.2 °F - 68.0 °F 78% 30.05 in 10.0 mi South 15.0 mph - N/A   Clear
9:35 AM 77.0 °F - 68.0 °F 74% 30.05 in 10.0 mi SSW 15.0 mph - N/A   Clear
9:55 AM 77.0 °F - 68.0 °F 74% 30.05 in 10.0 mi South 17.3 mph - N/A   Clear
10:15 AM 78.8 °F - 69.8 °F 74% 30.05 in 10.0 mi South 15.0 mph - N/A   Clear
10:35 AM 78.8 °F - 69.8 °F 74% 30.05 in 10.0 mi South 11.5 mph - N/A   Clear
10:55 AM 80.6 °F 83.9 °F 69.8 °F 70% 30.06 in 10.0 mi SSW 10.4 mph - N/A   Clear
11:15 AM 80.6 °F 83.9 °F 69.8 °F 70% 30.06 in 10.0 mi SSW 10.4 mph - N/A   Clear
11:35 AM 82.4 °F 86.3 °F 69.8 °F 66% 30.06 in 10.0 mi South 11.5 mph - N/A   Clear
11:55 AM 82.4 °F 87.2 °F 71.6 °F 70% 30.05 in 10.0 mi SSW 10.4 mph 16.1 mph N/A   Clear
12:15 PM 84.2 °F 89.6 °F 71.6 °F 66% 30.05 in 10.0 mi South 12.7 mph 17.3 mph N/A   Clear
12:35 PM 86.0 °F 91.8 °F 71.6 °F 62% 30.05 in 10.0 mi South 11.5 mph 17.3 mph N/A   Clear
12:55 PM 84.2 °F 89.6 °F 71.6 °F 66% 30.05 in 10.0 mi South 12.7 mph - N/A   Clear
1:15 PM 86.0 °F 91.8 °F 71.6 °F 62% 30.04 in 10.0 mi SSE 11.5 mph - N/A   Clear
1:35 PM 87.8 °F 93.8 °F 71.6 °F 58% 30.03 in 10.0 mi South 10.4 mph 18.4 mph N/A   Clear
1:55 PM 87.8 °F 93.8 °F 71.6 °F 58% 30.03 in 10.0 mi South 12.7 mph - N/A   Clear
2:15 PM 87.8 °F 93.8 °F 71.6 °F 58% 30.02 in 10.0 mi South 10.4 mph 16.1 mph N/A   Clear
2:35 PM 89.6 °F 98.2 °F 73.4 °F 59% 30.01 in 10.0 mi SSE 11.5 mph 17.3 mph N/A   Clear
2:55 PM 89.6 °F 98.2 °F 73.4 °F 59% 30.01 in 10.0 mi SSW 12.7 mph - N/A   Clear
3:15 PM 89.6 °F 98.2 °F 73.4 °F 59% 30.01 in 10.0 mi South 10.4 mph 18.4 mph N/A   Clear
3:35 PM 89.6 °F 96.2 °F 71.6 °F 55% 30.00 in 10.0 mi South 11.5 mph - N/A   Clear
3:55 PM 89.6 °F 96.2 °F 71.6 °F 55% 30.00 in 10.0 mi South 13.8 mph 19.6 mph N/A   Clear
4:15 PM 89.6 °F 96.2 °F 71.6 °F 55% 29.99 in 10.0 mi South 11.5 mph - N/A   Clear
4:35 PM 89.6 °F 96.2 °F 71.6 °F 55% 29.99 in 10.0 mi South 12.7 mph 18.4 mph N/A   Clear
4:55 PM 91.4 °F 98.4 °F 71.6 °F 52% 29.99 in 10.0 mi South 13.8 mph 18.4 mph N/A   Clear
5:15 PM 89.6 °F 98.2 °F 73.4 °F 59% 29.99 in 10.0 mi South 12.7 mph 17.3 mph N/A   Clear
5:35 PM 89.6 °F 96.2 °F 71.6 °F 55% 29.99 in 10.0 mi South 13.8 mph 18.4 mph N/A   Clear
5:55 PM 89.6 °F 96.2 °F 71.6 °F 55% 29.98 in 10.0 mi South 11.5 mph - N/A   Clear
6:15 PM 89.6 °F 98.2 °F 73.4 °F 59% 29.98 in 10.0 mi South 10.4 mph - N/A   Clear
6:35 PM 89.6 °F 98.2 °F 73.4 °F 59% 29.98 in 10.0 mi South 11.5 mph - N/A   Clear
6:55 PM 87.8 °F 93.8 °F 71.6 °F 58% 29.97 in 10.0 mi South 12.7 mph - N/A   Clear
7:15 PM 87.8 °F 95.6 °F 73.4 °F 62% 29.97 in 10.0 mi South 11.5 mph - N/A   Clear
7:35 PM 86.0 °F 93.4 °F 73.4 °F 66% 29.97 in 10.0 mi SSE 10.4 mph - N/A   Clear
7:55 PM 86.0 °F 93.4 °F 73.4 °F 66% 29.97 in 10.0 mi SSE 9.2 mph - N/A   Clear
8:15 PM 84.2 °F 90.9 °F 73.4 °F 70% 29.98 in 10.0 mi SSE 6.9 mph - N/A   Clear
8:35 PM 82.4 °F 88.2 °F 73.4 °F 74% 29.98 in 10.0 mi South 6.9 mph - N/A   Clear
8:55 PM 80.6 °F 85.4 °F 73.4 °F 79% 29.99 in 10.0 mi South 5.8 mph - N/A   Clear
9:15 PM 78.8 °F - 73.4 °F 83% 29.99 in 10.0 mi SSE 6.9 mph - N/A   Clear
9:35 PM 78.8 °F - 73.4 °F 83% 29.99 in 10.0 mi South 6.9 mph - N/A   Clear
9:55 PM 78.8 °F - 73.4 °F 83% 30.01 in 7.0 mi South 5.8 mph - N/A   Clear
10:15 PM 77.0 °F - 71.6 °F 83% 30.01 in 7.0 mi South 6.9 mph - N/A   Clear
10:35 PM 77.0 °F - 71.6 °F 83% 30.02 in 7.0 mi South 6.9 mph - N/A   Clear
10:55 PM 77.0 °F - 71.6 °F 83% 30.02 in 7.0 mi South 8.1 mph - N/A   Clear
11:15 PM 78.8 °F - 71.6 °F 78% 30.03 in 7.0 mi South 8.1 mph - N/A   Clear
11:35 PM 77.0 °F - 71.6 °F 83% 30.03 in 10.0 mi South 6.9 mph - N/A   Clear
11:55 PM 77.0 °F - 71.6 °F 83% 30.03 in 7.0 mi SSE 5.8 mph - N/A   Clear